Location: Muurame
(62.1333°N, 25.6667°E)
Time: 08:01:11
(UTC+00:00)

Daily predictions for brighter satellites

Satellite Brightness Start Highest point End
(mag) Time Altitude Azimuth Time Altitude Azimuth Time Altitude Azimuth
Timation 2 Rocket 4.3 14:30:12 10° SSW 14:37:01 73° SE 14:43:55 10° NE
IRIDIUM 103 4.4 14:33:10 10° N 14:38:26 88° W 14:43:41 10° S
Cosmos 1726 Rocket 4.2 14:36:45 10° N 14:40:45 34° ENE 14:44:45 10° SE
Meteor 2-10 Rocket 4.2 14:35:53 10° NNW 14:41:07 37° NE 14:46:10 10° ESE
YAOGAN 6 2.5 14:43:04 10° SSE 14:46:40 79° ENE 14:50:20 10° NNW
NOSS 8 (H) 4.3 14:43:48 10° W 14:46:51 72° N 14:50:33 10° E
COSMOS 2487 4.4 14:44:56 10° W 14:47:32 20° NNW 14:50:08 10° NNE
NOSS 2-3 (D) 4.3 14:42:21 10° W 14:47:32 81° N 14:54:23 10° E
Cosmos 1626 3.3 14:46:19 10° SE 14:49:20 24° E 14:52:22 10° NE
CZ-4C R/B 4.3 14:47:03 10° NE 14:49:24 19° E 14:51:44 10° SE
Cosmos 1603 4.4 14:44:43 10° NW 14:50:21 62° WSW 14:55:59 10° SSE
CZ-4 R/B 2.6 14:47:38 10° E 14:50:42 21° NE 14:53:44 10° N
Cosmos 2034 Rocket 4.3 14:46:06 10° NNW 14:52:26 75° W 14:58:39 10° S
PSLV R/B 3.7 14:48:42 10° SSE 14:52:26 88° WSW 14:56:16 10° NNW
CZ-4B R/B 3.3 14:47:21 10° SE 14:52:55 70° ENE 14:58:34 10° NNW
Cosmos 2279 Rocket 4.2 14:46:53 10° NNW 14:53:02 52° ENE 14:59:09 10° SE
SL-24 R/B 4.3 14:50:08 10° SE 14:54:34 62° ENE 14:59:29 10° NNW
Cosmos 1538 Rocket 4.0 14:49:25 10° NW 14:54:38 66° NE 14:59:47 10° SE
Cosmos 2297 Rocket 2.3 14:49:12 10° SW 14:54:53 85° SE 15:00:35 10° NE
NOSS 6 (F) 4.5 14:53:31 10° WSW 14:56:36 88° SSE 14:59:28 10° ENE
SL-08 R/B 3.3 14:53:08 10° NNE 14:57:48 83° ESE 15:02:29 10° SSW
ADEOS Rocket 3.0 14:52:55 10° NNE 14:59:17 70° ESE 15:05:03 10° S
NOSS 8 (F) 4.4 14:56:16 10° W 14:59:22 71° N 15:03:06 10° E
NOAA 12 4.1 14:56:15 10° SSE 15:01:29 80° ENE 15:06:46 10° NNW
PAYLOAD B 4.3 14:56:25 10° SSE 15:01:57 87° WSW 15:07:33 10° NNW
COSMO-SKYMED 1 4.3 14:59:47 10° NE 15:02:05 14° E 15:04:23 10° ESE
ATLAS 5 CENTAUR R/B 3.3 15:00:15 10° SSE 15:03:00 17° ESE 15:05:57 10° E
Aureole 3 4.3 15:01:31 10° N 15:04:49 23° NE 15:07:40 10° ESE
NOSS 3-1 (C) 3.9 14:58:21 10° WNW 15:04:56 88° NNE 15:12:54 10° ESE
EP 3 3.3 15:03:48 10° WSW 15:05:41 80° NNW 15:07:13 15° ENE
Lacrosse 5 3.2 15:01:29 10° W 15:06:12 40° SSW 15:10:54 10° SE
Cosmos 1536 Rocket 3.8 15:02:37 10° S 15:06:52 49° E 15:11:11 10° NNE
Cosmos 968 Rocket 3.8 15:02:00 10° S 15:06:53 48° ESE 15:11:49 10° NE
Cosmos 1634 Rocket 4.0 15:01:51 10° NNW 15:08:08 81° ENE 15:14:25 10° SSE
Cosmos 2082 3.9 15:02:40 10° SSW 15:08:19 63° SE 15:13:57 10° NE
Cosmos 1850 Rocket 4.5 15:03:07 10° SW 15:08:24 61° NW 15:13:40 10° NE
KORONAS-FOTON 3.9 15:05:49 10° S 15:09:40 59° E 15:13:34 10° NNE
NOSS 2-3 (C) 4.4 15:04:28 10° WNW 15:09:48 85° NNE 15:16:52 10° ESE
Envisat 3.6 15:05:40 10° S 15:10:43 63° WSW 15:15:48 10° NNW
H-2A R/B 2.6 15:08:23 10° SSE 15:12:31 85° WSW 15:16:51 10° NNW
Cosmos 1025 Rocket 3.0 15:09:43 10° S 15:14:03 74° ESE 15:18:28 10° NNE
CZ-2D R/B 3.8 15:11:04 10° SE 15:14:37 36° ENE 15:18:10 10° N
FengYun 1-2 T 4.2 15:09:53 10° SSE 15:15:29 79° ENE 15:21:09 10° NNW
USA 290 3.9 15:13:37 10° NNW 15:15:57 18° NNE 15:17:23 14° ENE
Cosmos 1486 Rocket 4.2 15:16:46 10° SSW 15:21:52 56° ESE 15:26:59 10° NE
USA 229 DEB 3.9 15:15:32 10° WNW 15:22:31 87° NNE 15:30:01 10° ESE
USA 229 3.8 15:15:38 10° WNW 15:22:37 87° NNE 15:30:07 10° ESE
Cosmos 1400 Rocket 4.4 15:19:12 10° NNW 15:23:06 40° W 15:26:56 10° SSW
Cosmos 489 Rocket 4.5 15:17:17 10° NW 15:23:41 70° NE 15:30:03 10° SE
NOSS 2-2 (C) 3.6 15:19:51 10° W 15:23:47 79° N 15:28:13 14° E
USA 281 4.0 15:19:03 11° ENE 15:24:32 34° NNE 15:30:19 10° NW
SL-14 R/B 3.8 15:20:55 10° SSE 15:24:33 38° E 15:28:14 10° NNE
CORIOLIS 4.2 15:19:09 10° SSE 15:24:33 86° WSW 15:29:59 10° NNW
Cosmos 909 Rocket 4.2 15:19:18 10° W 15:25:41 66° N 15:31:18 14° ENE
Cosmos 2263 Rocket 2.9 15:21:22 10° S 15:26:32 37° ESE 15:31:04 13° NE
Okean-O 3.2 15:22:38 10° ESE 15:26:41 36° ENE 15:30:46 10° N
Okean O Rocket 1.7 15:23:24 10° SSE 15:27:52 88° WSW 15:32:20 10° NNW
Meteor 2-5 Rocket 3.9 15:24:25 10° SSE 15:29:42 47° E 15:35:00 10° NNE
Cosmos 1455 2.8 15:26:44 10° N 15:30:15 34° ENE 15:33:46 10° SE
NOSS 3-4 (A) 3.7 15:24:58 10° SW 15:30:53 59° SE 15:36:22 15° ENE
NOSS 3-4 (C) 3.7 15:25:09 10° SW 15:31:03 59° SE 15:36:31 15° ENE
RESURS DK-1 3.1 15:27:47 10° S 15:31:37 37° ESE 15:34:26 16° ENE
Cosmos 1606 Rocket 3.5 15:27:50 10° NNW 15:32:15 86° ENE 15:36:40 10° SSE
Genesis I 3.2 15:28:28 10° WSW 15:32:22 73° NNW 15:35:18 17° ENE
NOAA 11 4.3 15:28:01 10° SSE 15:33:33 83° WSW 15:39:06 10° NNW
H-2A R/B 2.6 15:29:25 10° NNE 15:33:41 40° E 15:37:52 10° SSE
COSMOS 2406 3.5 15:28:29 10° NW 15:34:09 51° NNE 15:39:49 10° ESE
Cosmos 1300 2.9 15:31:23 10° NNW 15:35:14 75° WSW 15:39:03 10° S
Aureole 1 4.1 15:32:15 10° NNW 15:35:37 65° NE 15:38:37 10° SE
Cosmos 1975 Rocket 4.0 15:31:37 10° SW 15:35:50 46° WNW 15:40:04 10° N
In-Cosmos 22 4.3 15:30:30 10° SSW 15:35:55 76° WNW 15:41:16 10° NNE
Helios 1A Rocket 3.6 15:32:21 10° ESE 15:36:05 33° NE 15:39:51 10° N
Cosmos-2242 4.3 15:34:07 10° N 15:37:18 20° NE 15:38:42 17° ENE
NOSS 3-1 (A) 3.8 15:31:24 10° WNW 15:38:01 89° NNE 15:46:00 10° ESE
Cosmos 2228 3.1 15:35:51 10° NNW 15:40:08 78° WSW 15:44:25 10° S
ARGOS 3.6 15:36:51 10° ESE 15:41:48 39° NE 15:46:48 10° NNW
YAOGAN 1 2.9 15:39:03 10° SE 15:43:08 42° ENE 15:47:14 10° N
Cosmos 1892 Rocket 4.3 15:39:48 10° SSE 15:43:36 31° E 15:47:15 11° NNE
SMAP 3.8 15:39:26 10° S 15:44:02 58° WSW 15:48:40 10° NNW
ERS-2 4.1 15:45:57 13° ESE 15:45:57 13° ESE 15:46:50 10° SE
Cosmos 1812 Rocket 4.2 15:43:29 10° N 15:47:30 32° ENE 15:51:28 10° SE
ATLAS 2AS CENTAUR R/B 3.2 15:40:54 10° SW 15:48:43 64° SE 15:54:43 17° ENE
NOSS 2-2 (E) 3.7 15:44:42 10° W 15:48:50 76° N 15:52:46 18° E
Tsikada Rocket 4.0 15:43:44 10° SSW 15:50:04 89° WNW 15:56:20 10° NNE
Cosmos 1503 Rocket 4.2 15:44:49 10° SSW 15:50:04 57° ESE 15:54:37 14° NE
SKYMED 2 4.4 15:47:45 14° NE 15:50:44 29° E 15:54:31 10° SSE
CZ-4B R/B 2.5 15:51:37 24° ENE 15:52:18 26° E 15:55:11 10° SSE
Cosmos 1833 Rocket 2.9 15:46:53 10° NW 15:52:25 53° NNE 15:57:12 14° ESE
IRS-1C Rocket 4.0 15:47:50 10° SSE 15:53:04 73° ENE 15:58:21 10° NNW
Cosmos 158 Rocket 4.0 15:49:10 10° NW 15:54:29 86° NE 15:59:53 10° SE
CSL-04 Debris 4.4 15:49:25 10° SE 15:54:34 47° ENE 15:59:43 10° NNW
Ariane Rocket 4.0 15:52:28 19° E 15:54:40 25° NE 15:58:47 10° N
SeaSat 1 2.5 15:50:48 14° NE 15:55:05 87° NW 16:00:02 10° SW
Cosmos 923 Rocket 4.0 15:50:53 10° NW 15:56:17 83° NE 16:01:38 10° SE
Cosmos 2082 Rocket 2.6 15:50:52 10° NW 15:56:24 45° NNE 16:00:13 19° E
Cosmos 405 4.0 15:54:18 10° N 15:57:18 25° NE 15:57:23 25° ENE
SJ 16-02 3.0 15:55:20 10° SE 15:57:28 16° ESE 15:57:28 16° ESE
Meteor 1-24 Rocket 3.6 15:54:43 10° S 15:59:56 59° E 16:05:10 10° NNE
Nadezhda 4 Rocket 4.4 15:56:03 10° SSE 16:01:42 38° E 16:07:21 10° NNE
SL-16 R/B 4.1 15:56:45 10° NNE 16:01:51 28° NW 16:06:54 10° W
Cosmos 2219 3.7 15:56:43 10° WSW 16:02:21 55° NNW 16:06:53 16° NE
Cosmos 1674 3.5 15:58:55 10° SW 16:02:41 51° WNW 16:06:28 10° N
Landsat 5 3.2 15:59:05 10° NNE 16:03:09 84° ESE 16:07:04 10° SSW
Cosmos 1680 Rocket 3.4 15:58:02 10° NW 16:03:21 77° NE 16:08:36 10° SE
CZ-4C R/B 2.5 15:58:55 10° SW 16:04:20 66° SE 16:08:44 21° ENE
Cosmos 2058 Rocket 3.1 16:01:19 10° NNW 16:05:50 89° WSW 16:10:22 10° SSE
NOSS 8 (E) 4.5 16:04:56 10° WNW 16:08:10 87° SSW 16:10:26 24° ESE
H-2A R/B 2.0 16:04:44 10° SE 16:09:43 64° ENE 16:14:53 10° NNW
Cosmos 1939 Rocket 3.3 16:07:02 10° S 16:11:08 65° WSW 16:15:11 10° NNW
COSMOS 2455 3.7 16:07:52 10° S 16:13:01 31° ESE 16:15:15 24° E
CZ-2C R/B 3.2 16:07:34 10° SSE 16:13:03 89° W 16:18:50 10° NNW
MOS 1 Rocket 3.6 16:11:34 21° NE 16:13:47 35° E 16:17:44 10° SSE
Cosmos 2227 4.3 16:08:22 10° SSW 16:13:57 62° ESE 16:17:46 21° NE
USA 234 3.7 16:08:27 15° ESE 16:13:58 58° S 16:20:27 10° W
Cosmos 2227 Rocket 2.7 16:09:29 10° WSW 16:15:04 55° NNW 16:19:17 18° NE
HJ-1C 3.7 16:14:06 31° ESE 16:15:09 42° ENE 16:18:22 10° N
Resurs 01 Rocket 3.3 16:17:05 17° NNE 16:17:05 17° NNE 16:19:19 10° N
Cosmos 1726 Rocket 4.4 16:14:32 10° NNW 16:18:47 52° W 16:23:03 10° S
Iridium 4 Rocket 4.0 16:13:24 10° N 16:19:00 45° ENE 16:24:17 10° SE
Cosmos 1844 Rocket 3.6 16:16:07 10° SSE 16:20:45 27° ESE 16:21:35 26° E
SJ-11-01 4.2 16:17:11 10° SSE 16:21:51 69° ENE 16:26:32 10° NNW
CZ-4C R/B 3.3 16:19:52 14° N 16:22:25 58° WNW 16:25:32 10° SSW
Meteor 2-10 Rocket 4.0 16:18:01 10° NNW 16:23:39 68° WSW 16:29:00 10° S
Cosmos 1626 2.7 16:20:40 10° SSW 16:24:19 56° WNW 16:27:59 10° N
CZ-4 R/B 1.3 16:21:13 10° SSE 16:25:18 88° ENE 16:29:20 10° NNW
NOSS 2-2 (D) 3.7 16:22:30 10° W 16:26:40 78° N 16:29:11 31° E
Cosmos 1553 Rocket 4.3 16:21:04 10° NNW 16:27:15 45° ENE 16:33:22 10° SE
Cosmos 2344 4.2 16:20:03 10° WNW 16:28:19 78° SSW 16:39:33 10° SE
Okean 1-7 Rocket 3.8 16:24:31 10° S 16:28:56 50° E 16:32:06 18° NNE
Terra 4.0 16:35:49 11° NNE 16:35:49 11° NNE 16:36:55 10° N
Cosmos 1626 Rocket 4.2 16:31:33 10° SSE 16:34:53 33° ESE 16:34:53 33° ESE
Cosmos 2026 Rocket 4.4 16:33:06 10° SSE 16:38:36 36° E 16:44:12 10° NNE
COSMO-SKYMED 1 2.5 16:36:23 21° NNE 16:39:10 62° ESE 16:43:29 10° S
Cosmos 2297 Rocket 3.0 16:34:02 10° W 16:39:28 44° NNW 16:42:50 22° NE
Cosmos 2112 Rocket 4.1 16:35:49 10° NW 16:41:08 77° WSW 16:46:21 10° SSE
OPS 0252 4.5 16:39:02 10° WNW 16:42:02 77° SSW 16:42:08 76° S
CSL-04 DEB 4.4 16:39:52 20° NNE 16:42:46 78° ESE 16:46:56 10° SSW
ADEOS Rocket 4.2 16:38:39 10° NNE 16:44:36 41° NW 16:50:01 10° WSW
CSL-04 Rocket 3.6 16:39:12 10° SSE 16:44:39 81° ENE 16:50:12 10° NNW
ATLAS 5 CENTAUR R/B 1.9 16:42:22 10° SW 16:46:34 54° SE 16:47:40 43° E
Aureole 3 Rocket 3.7 16:43:46 10° N 16:45:23 26° N 16:45:23 26° N
Aureole 3 3.6 16:43:13 10° NNW 16:47:10 61° W 16:50:26 10° S
Cosmos 1777 Rocket 4.0 16:42:15 10° SSW 16:47:28 63° ESE 16:49:48 33° NE
Lacrosse 5 4.2 16:44:36 10° W 16:48:14 20° SW 16:51:51 10° S
Cosmos 968 Rocket 4.1 16:43:43 10° WSW 16:48:44 53° NW 16:52:09 20° NNE
S3M 4.2 16:43:45 10° N 16:49:38 45° ENE 16:51:47 33° ESE
USA 290 2.9 16:47:45 10° NNW 16:50:09 42° N 16:50:09 42° N
Meteor 2-8 Rocket 4.3 16:44:56 10° NNW 16:51:04 80° ENE 16:57:11 10° SSE
Meteor 2-15 4.4 16:45:11 10° NNW 16:51:20 65° ENE 16:57:28 10° SSE
Cosmos 2082 4.3 16:47:02 10° WSW 16:52:39 53° NNW 16:55:56 24° NE
NOSS 3-1 (C) 4.5 16:49:02 10° WNW 16:55:47 57° SW 17:03:47 10° SE
Cosmos 1354 Rocket 4.2 16:50:40 10° SW 16:56:01 75° NW 16:59:15 25° NNE
Meteor 1-27 4.2 16:50:26 10° NNW 16:56:03 57° ENE 16:58:31 32° SE
SL-08 RB Rocket 3.5 16:58:31 20° SSE 17:01:39 80° ENE 17:06:10 10° NNW
Okean-O 3.3 16:58:43 10° S 17:03:04 55° WSW 17:07:28 10° NNW
SKYMED 3 4.5 17:00:39 25° NNE 17:03:13 90° ESE 17:07:34 10° SSW
SJ-6B 3.9 17:05:22 32° N 17:05:22 32° N 17:07:51 10° N
MetOp-A 4.1 17:01:58 33° SE 17:04:21 64° ENE 17:09:41 10° NNW
Okean O Rocket 4.4 17:01:34 10° SW 17:04:52 20° W 17:08:10 10° NW
Cosmos 1455 3.4 17:02:21 10° NNW 17:05:58 42° W 17:09:35 10° SSW
USA 281 3.3 17:05:55 39° E 17:08:14 58° NE 17:14:39 10° NW
RESURS DK-1 2.7 17:05:25 10° WSW 17:09:33 61° NW 17:10:20 50° NNE
H-2A R/B 3.0 17:05:35 11° NNE 17:09:47 48° WNW 17:14:03 10° SW
Cosmos 2263 Rocket 2.3 17:04:29 10° SW 17:10:11 77° NW 17:12:47 34° NE
Genesis I 3.4 17:06:21 10° WNW 17:10:10 61° N 17:10:10 61° N
Helios 1A Rocket 3.6 17:07:03 10° S 17:11:08 54° WSW 17:15:13 10° NNW
USA 229 DEB 4.3 17:06:28 10° WNW 17:13:23 57° SW 17:19:08 17° SSE
USA 229 4.3 17:06:34 10° WNW 17:13:29 57° SW 17:19:10 18° SSE
NOSS 2-2 (C) 3.8 17:10:14 10° WNW 17:14:34 89° NNE 17:15:37 58° ESE
Cosmos-2242 2.8 17:11:16 10° NNW 17:15:34 80° ENE 17:15:36 80° E
Cosmos 1627 Rocket 4.5 17:09:50 10° S 17:15:54 57° E 17:22:04 10° NNE
Cosmos 1428 Rocket 4.5 17:12:14 10° S 17:18:21 57° E 17:24:33 10° NNE
ERS-2 3.5 17:20:31 30° SSW 17:20:31 30° SSW 17:22:26 10° SSW
COSMOS 2406 3.5 17:13:01 10° NW 17:18:48 69° SW 17:22:13 25° SSE
YAOGAN 1 3.7 17:15:09 10° S 17:19:17 43° W 17:23:27 10° NNW
Meteor 2-15 Rocket 4.3 17:14:50 10° NNW 17:21:02 78° ENE 17:25:19 21° SSE
Cosmos 1892 Rocket 4.2 17:17:03 10° SSW 17:21:19 54° WNW 17:24:27 18° N
NOSS 3-4 (A) 3.5 17:15:29 10° W 17:21:41 84° NNW 17:23:48 47° ENE
NOSS 3-4 (C) 3.5 17:15:38 10° W 17:21:51 84° NNW 17:23:58 47° ENE
ARGOS 3.5 17:16:36 10° S 17:21:56 64° WSW 17:27:19 10° NNW
CZ-2C R/B 4.4 17:26:40 18° SSE 17:26:40 18° SSE 17:28:07 10° S
MOS 1 4.2 17:22:37 46° SE 17:24:19 71° ENE 17:30:02 10° NNW
CZ-4B R/B 2.3 17:24:43 48° WNW 17:24:43 48° WNW 17:27:58 10° SW
Cosmos 1812 Rocket 4.2 17:21:18 10° NNW 17:25:40 57° W 17:29:58 10° S
DMSP B5D1-3 4.5 17:26:32 60° SE 17:26:32 60° SE 17:31:06 10° S
Cosmos 909 Rocket 4.0 17:20:15 10° WNW 17:26:34 73° NNE 17:28:13 51° E
SKYMED 2 4.0 17:24:56 26° N 17:27:14 63° WNW 17:31:33 10° SW
NOSS 3-1 (A) 4.4 17:22:07 10° WNW 17:28:54 56° SW 17:34:20 21° SSE
Cosmos 1092 Rocket 3.8 17:24:05 10° S 17:30:15 77° E 17:36:25 10° NNE
Cosmos 405 4.2 17:28:42 10° NNW 17:31:13 40° NW 17:31:13 40° NW
SeaSat 1 3.5 17:30:34 29° NNE 17:32:19 38° NNW 17:36:52 10° W
Ariane Rocket 2.8 17:32:39 72° ESE 17:33:03 78° ENE 17:38:11 10° NNW
Cosmos 2221 4.4 17:30:18 10° N 17:31:54 21° N 17:31:54 21° N
SJ 16-02 2.2 17:31:41 10° SSW 17:34:30 39° SSW 17:34:30 39° SSW
Cosmos 1833 Rocket 3.0 17:31:00 10° NW 17:36:34 62° WSW 17:38:57 34° S
Cosmos 468 4.3 17:33:48 10° NW 17:39:05 80° NE 17:39:11 79° ENE
NOSS 2-2 (E) 4.0 17:35:01 10° WNW 17:39:35 77° SSW 17:40:08 69° SSE
ATLAS 2AS CENTAUR R/B 2.9 17:31:47 10° WSW 17:39:44 84° NNW 17:42:09 49° ENE
Cosmos 2082 Rocket 2.2 17:35:13 10° NW 17:40:59 83° SW 17:42:06 60° SSE
Cosmos 1844 3.9 17:39:38 10° SSW 17:44:20 54° SSE 17:44:20 54° SSE
Nadezhda 4 Rocket 4.3 17:40:34 10° SSW 17:46:46 66° WNW 17:52:57 10° NNE
Cosmos 2219 4.3 17:42:20 10° WNW 17:47:35 35° N 17:48:48 32° NNE
H-2A R/B 3.6 17:44:56 10° SSW 17:49:33 34° W 17:54:17 10° NNW
Resurs 01 Rocket 3.3 17:54:39 24° N 17:54:39 24° N 17:56:31 10° NNW
MOS 1 Rocket 3.9 17:50:50 35° NNW 17:52:16 49° WNW 17:56:25 10° SW
CZ-4C R/B 2.4 17:47:02 10° W 17:52:53 82° N 17:53:55 65° ENE
APEX 4.2 17:46:39 10° SW 17:53:23 82° SE 17:53:51 76° ENE
USA 234 4.0 17:55:48 35° SSE 17:57:47 43° SSW 18:04:00 10° W
SPOT 3 Rocket 4.1 17:59:41 49° N 17:59:41 49° N 18:03:31 10° NNW
COSMOS 2455 2.7 17:52:19 10° SW 17:58:22 80° SE 17:58:25 80° SE
Iridium 4 Rocket 4.4 17:53:30 10° N 17:59:09 53° W 18:04:28 10° SSW
Cosmos 1048 Rocket 4.0 17:54:10 10° NW 17:58:55 75° WNW 17:58:55 75° WNW
Cosmos 2227 Rocket 3.2 17:54:59 10° WNW 18:00:11 35° N 18:01:05 33° NNE
CZ-4 R/B 4.1 17:57:56 10° SW 18:00:52 19° W 18:03:47 10° NW
Cosmos 2098 Rocket 4.2 17:54:56 10° S 18:02:20 83° E 18:09:38 10° NNE
Cosmos 1844 Rocket 2.8 17:58:21 10° SW 18:03:17 68° SSW 18:03:17 68° SSW
Cosmos 1818 4.5 18:00:50 10° SW 18:04:19 38° SSW 18:04:19 38° SSW
Terra 4.0 18:14:42 16° N 18:14:42 16° N 18:15:49 10° N
Cosmos 2315 Rocket 4.0 18:05:45 10° NNW 18:11:18 65° NNE 18:11:18 65° NNE
Cosmos 1553 Rocket 4.5 18:06:37 10° NNW 18:12:56 61° W 18:18:15 15° S
COSMO-SKYMED 1 4.2 18:13:35 25° NNW 18:15:09 32° NW 18:19:00 10° WSW
NOSS 2-2 (D) 4.4 18:12:48 10° WNW 18:16:35 57° WSW 18:16:35 57° WSW
Cosmos 494 Rocket 4.5 18:12:50 10° NW 18:16:50 55° NW 18:16:50 55° NW
Cosmos 2026 Rocket 4.1 18:17:24 10° SSW 18:23:33 71° WNW 18:29:50 10° NNE
Cosmos 2297 Rocket 3.3 18:19:34 10° WNW 18:24:38 34° N 18:24:38 34° N
Meteor 2-2 Rocket 4.5 18:21:33 10° NNW 18:26:49 70° NW 18:26:49 70° NW
ATLAS 5 CENTAUR R/B 3.0 18:26:32 10° W 18:29:12 37° W 18:29:12 37° W
S3M 4.4 18:29:18 10° NNW 18:35:20 58° W 18:36:31 49° SW
USA 281 3.5 18:52:47 61° WSW 18:52:49 61° WSW 18:59:21 10° NW
Cosmos 2263 Rocket 3.3 18:49:33 10° W 18:54:29 39° NNW 18:54:29 39° NNW
SeaSat 1 4.4 19:10:21 25° NNW 19:10:21 25° NNW 19:13:13 10° WNW
NOSS 3-4 (A) 4.1 19:06:28 10° WNW 19:11:15 55° WNW 19:11:15 55° WNW
NOSS 3-4 (C) 4.1 19:06:38 10° WNW 19:11:24 55° WNW 19:11:24 55° WNW
SJ 16-02 4.2 19:11:03 10° WSW 19:11:32 13° W 19:11:32 13° W
Cosmos 2082 Rocket 4.0 19:19:45 10° NW 19:23:58 26° W 19:23:58 26° W
Resurs 01 Rocket 4.5 19:32:12 14° NW 19:32:12 14° NW 19:32:57 10° NNW
ATLAS 2AS CENTAUR R/B 3.3 19:23:17 10° WNW 19:29:35 61° WNW 19:29:35 61° WNW
CZ-4C R/B 3.7 19:35:30 10° WNW 19:39:06 40° WNW 19:39:06 40° WNW
COSMOS 2455 4.5 19:38:42 10° W 19:41:35 29° W 19:41:35 29° W
Cosmos 2227 Rocket 4.1 19:40:10 10° NW 19:42:55 26° NNW 19:42:55 26° NNW
Cosmos 2297 Rocket 4.4 20:04:26 10° NW 20:06:27 21° NW 20:06:27 21° NW
